User: anonymous   Login
Location: Unspecified
(0.0000°N, 0.0000°E)
Time: 23:26:43
(UTC+00:00)
Language:

APRIZESAT 1 (LATINSAT C) - Orbit

View from above orbital plane
View from above orbital plane
View from above satellite
View from above satellite

Ground track
Ground track

The orbit data is extracted from the following two-line orbital elements,

1 28372U 04025G   21332.34630861  .00000087  00000-0  34479-4 0  9991
2 28372  98.4648 287.0312 0046557 166.1862 194.0617 14.49706461920969
Epoch (UTC): 28 November 2021 08:18:41
Eccentricity: 0.0046557
inclination: 98.4648°
perigee height: 693 km
apogee height: 759 km
right ascension of ascending node: 287.0312°
argument of perigee: 166.1862°
revolutions per day: 14.49706461
mean anomaly at epoch: 194.0617°
orbit number at epoch: 92096

The dashed part of the orbit path shows where the satellite is in the earth's shadow,  

DLR